Location: Gradaro
(45.0833°N, 10.8833°E)
Time: 20:46:33
(UTC+00:00)

Cosmos 2341 Rocket - Pass Details

Date: 29 November 2020
Orbit: 969 x 1003 km, 82.9° (Epoch: 21 January)

Event Time Altitude Azimuth Distance (km) Brightness Sun altitude
Rises 05:23:06 0° 179° (S) 3,648 7.3 -12.0°
Reaches altitude 10° 05:25:36 10° 177° (S) 2,704 6.6 -11.6°
Maximum altitude 05:31:45 72° 94° (E) 1,022 4.3 -10.6°
Drops below altitude 10° 05:37:57 10° 12° (NNE) 2,727 6.3 -9.5°
Sets 05:40:29 0° 11° (N) 3,682 6.9 -9.1°
